Location: Hains Lake
(37.8540°N, 99.8578°W)
Time: 12:02:00
(UTC+00:00)

Vanguard 1 - Pass Details

Date: 27 November 2022
Orbit: 649 x 3831 km, 34.2° (Epoch: 31 January)

Event Time Altitude Azimuth Distance (km) Brightness Sun altitude
Exits shadow 08:38:11 13° 103° (ESE) 3,329 13.0 -57.2°
Drops below altitude 10° 08:39:10 10° 102° (ESE) 3,689 13.3 -57.0°
Sets 08:43:19 0° 100° (E) 5,181 14.2 -56.2°
